Miscellaneous Local Product
Issued by NWS North Platte, NE

Home | Current Version | Previous Version | Graphics & Text | Print | Product List | Glossary On
Versions: 1 2 3 4 5 6 7 8 9 10 11 12 13 14 15 16 17 18 19 20 21 22 23 24 25 26 27 28 29 30 31 32 33 34 35 36 37 38 39 40 41 42 43 44 45 46 47 48 49 50
000
AXUS43 KLBF 220210
MISLBF


WESTERN AND NORTH CENTRAL NEBRASKA HOURLY WEATHER ROUNDUP
NATIONAL WEATHER SERVICE NORTH PLATTE NE
900 PM CDT THU MAY 21 2015

***STATIONS NOT REPORTING VARIABLES SUCH AS SKY/WEATHER OR
PRESSURE ARE PROVIDED BY THE NEBRASKA DEPARTMENT OF
ROADS...RAWS...AND APRS NETWORKS...AND ARE NOT UNDER
NATIONAL WEATHER SERVICE QUALITY CONTROL***

...OBSERVATIONS IN AND NEAR THE EASTERN PANHANDLE OF NEBRASKA...

CITY           SKY/WX    TMP DP  RH WIND       PRES   REMARKS
PINE RIDGE     CLOUDY    56  43  61 SE6       30.13F
CHADRON        CLOUDY    56  45  66 SE8       30.12S
ALLIANCE       CLOUDY    54  44  69 SE14      30.13S
SIDNEY         CLOUDY    52  44  74 SE13      30.15S
WHITECLAY        N/A     54  42  63 SE6         N/A
BIG SPRINGS      N/A     55  46  73 SE9         N/A
$$

...OBSERVATIONS IN NORTH CENTRAL NEBRASKA...

CITY           SKY/WX    TMP DP  RH WIND       PRES   REMARKS
VALENTINE      CLEAR     58  35  42 SE7       30.16R
THEDFORD       CLEAR     58  41  53 SE6       30.17S
AINSWORTH      CLEAR     57  36  44 SE5       30.17S
O`NEILL        CLEAR     61  41  47 CALM      30.17S
ORD            CLEAR     54  38  54 SW5       30.17R
BROKEN BOW     CLEAR     57  40  52 S5        30.18R
BROWNLEE         N/A     59  29  31 SE7         N/A
BREWSTER         N/A     58  40  51 S7          N/A
ROSE             N/A     61  39  44 CALM        N/A
NEWPORT          N/A     61  37  41 S5          N/A
COMSTOCK         N/A     55  37  52 S5          N/A
$$

...OBSERVATIONS IN SOUTHWEST NEBRASKA AND FAR NORTHEAST COLORADO...

CITY           SKY/WX    TMP DP  RH WIND       PRES   REMARKS
WRAY           CLOUDY    55  44  64 SE12G21   30.17R
IMPERIAL       CLOUDY    55  42  61 SE8       30.17S
OGALLALA       CLOUDY    56  44  64 SE6       30.17S
NORTH PLATTE   MOCLDY    56  42  59 S6        30.18R
MCCOOK         CLOUDY    56  42  59 SE8       30.18R
LEXINGTON      MOCLDY    56  44  63 S5        30.19R
PAXTON           N/A     57  47  70 S6          N/A
GOTHENBURG       N/A     57  40  53 CALM        N/A
CALLAWAY         N/A     54  44  70 SE6         N/A
$$

...NORTH PLATTE AREA...

CITY           SKY/WX    TMP DP  RH WIND       PRES   REMARKS
AIRPORT        MOCLDY    56  42  59 S6        30.18R
$$

...SOME WEATHER OBSERVATIONS FROM AROUND THE REGION...

CITY           SKY/WX    TMP DP  RH WIND       PRES   REMARKS
DENVER         CLOUDY    50  45  83 S6        30.11R
LARAMIE        MOCLDY    44  39  82 SE20      30.10R
CHEYENNE       CLOUDY    48  43  82 SE14G23   30.11S
SCOTTSBLUFF    CLOUDY    54  44  69 SE12      30.12R
RAPID CITY     MOCLDY    56  43  61 S8        30.13R
PIERRE         CLEAR     63  35  35 S7        30.12R
WINNER         FAIR      63  34  33 S6        30.16R
SIOUX FALLS    PTCLDY    62  37  39 NW3       30.11R
OMAHA          PTCLDY    67  38  34 SW5       30.14S
GRAND ISLAND   PTCLDY    57  38  48 SE5       30.19S
KANSAS CITY    PTCLDY    61  44  53 SW5       30.19S
WICHITA        PTCLDY    57  45  64 SE6       30.20S
HAYS           MOCLDY    55  41  58 S7        30.21R
LIBERAL        CLOUDY    57  45  62 SE7       30.18F
GOODLAND       CLOUDY    53  44  71 S9        30.19R
$$



USA.gov is the U.S. government's official web portal to all federal, state and local government web resources and services.